Location: Carella
(45.8167°N, 9.2667°E)
Time: 18:15:34
(UTC+00:00)

STARLINK-1073 - Pass Details

Date: 30 March 2020
Orbit: 549 x 551 km, 53.0° (Epoch: 04 June)

Event Time Altitude Azimuth Distance (km) Brightness Sun altitude
Rises 18:58:00 0° 300° (WNW) 2,728 9.0 -12.5°
Reaches altitude 10° 19:00:18 10° 306° (NW) 1,832 7.6 -12.9°
Maximum altitude 19:04:20 48° 21° (NNE) 726 4.2 -13.5°
Enters shadow 19:06:48 21° 88° (E) 1,257 4.9 -13.9°
